When you browse on this site, cookies collect data to enhance your experience and personalize the content and advertising you see.
Visit our Privacy Policy to learn more. By continuing to use the site, you agree to this use of cookies and data.
  • în România
  • Lista ţărilor
  • Pe 7 zile
  • Temperatura apei
  • Hartă satelitară
  • Meteo pe hartă
  • Widget-uri
  • user-avatar
    Intrare

    Meteo pe oră la Matveycevo

    Astăzi, 24 Mai, Vineri

    Timp Temperatura Precipitaţii Vânt Presiune Umiditate
    00:00 +3°C° 0 mm 2 m/s 743 mmHg 73%
    01:00 +2°C° 0 mm 2 m/s 743 mmHg 74%
    02:00 +2°C° 0 mm 2 m/s 744 mmHg 75%
    03:00 +2°C° 0 mm 2 m/s 744 mmHg 70%
    04:00 +3°C° 0 mm 2 m/s 744 mmHg 66%
    05:00 +4°C° 0 mm 2 m/s 745 mmHg 62%
    06:00 +5°C° 0 mm 2 m/s 745 mmHg 55%
    07:00 +7°C° 0 mm 2 m/s 745 mmHg 49%
    08:00 +9°C° 0 mm 2 m/s 745 mmHg 43%
    09:00 +10°C° 0 mm 2 m/s 745 mmHg 40%
    10:00 +11°C° 0 mm 3 m/s 745 mmHg 38%
    11:00 +12°C° 0 mm 3 m/s 745 mmHg 35%
    12:00 +12°C° 0 mm 3 m/s 745 mmHg 35%
    13:00 +13°C° 0 mm 3 m/s 745 mmHg 34%
    14:00 +13°C° 0 mm 3 m/s 744 mmHg 34%
    15:00 +13°C° 0 mm 3 m/s 744 mmHg 36%
    16:00 +13°C° 0 mm 3 m/s 744 mmHg 39%
    17:00 +13°C° 0 mm 3 m/s 743 mmHg 41%
    18:00 +12°C° 0 mm 2 m/s 743 mmHg 50%
    19:00 +10°C° 0 mm 2 m/s 743 mmHg 58%
    20:00 +8°C° 0 mm 2 m/s 743 mmHg 67%
    21:00 +7°C° 0 mm 2 m/s 743 mmHg 68%
    22:00 +7°C° 0 mm 3 m/s 743 mmHg 70%
    23:00 +7°C° 0 mm 3 m/s 743 mmHg 72%

    Mâine, 25 Mai, Sâmbătă

    Timp Temperatura Precipitaţii Vânt Presiune Umiditate
    00:00 +7°C° 0 mm 3 m/s 742 mmHg 71%
    01:00 +7°C° 0 mm 3 m/s 742 mmHg 70%
    02:00 +7°C° 0 mm 3 m/s 742 mmHg 70%
    03:00 +7°C° 0 mm 3 m/s 742 mmHg 70%
    04:00 +7°C° 0 mm 4 m/s 741 mmHg 71%
    05:00 +7°C° 0 mm 4 m/s 741 mmHg 71%
    06:00 +10°C° 0 mm 4 m/s 741 mmHg 71%
    07:00 +11°C° 0 mm 4 m/s 740 mmHg 70%
    08:00 +12°C° 0 mm 4 m/s 740 mmHg 70%
    09:00 +14°C° 0 mm 4 m/s 740 mmHg 68%
    10:00 +15°C° 0 mm 5 m/s 739 mmHg 65%
    11:00 +17°C° 0 mm 5 m/s 739 mmHg 63%
    12:00 +16°C° 0 mm 5 m/s 738 mmHg 67%
    13:00 +17°C° 0 mm 4 m/s 738 mmHg 70%
    14:00 +15°C° 0 mm 4 m/s 737 mmHg 74%
    15:00 +15°C° 0.6 mm 4 m/s 737 mmHg 80%
    16:00 +14°C° 0.6 mm 3 m/s 736 mmHg 87%
    17:00 +14°C° 0.6 mm 3 m/s 735 mmHg 93%
    18:00 +14°C° 1.3 mm 3 m/s 735 mmHg 94%
    19:00 +14°C° 1.3 mm 3 m/s 734 mmHg 95%
    20:00 +14°C° 1.3 mm 3 m/s 734 mmHg 96%
    21:00 +13°C° 0.6 mm 3 m/s 733 mmHg 97%
    22:00 +13°C° 0.6 mm 3 m/s 733 mmHg 97%
    23:00 +13°C° 0.6 mm 3 m/s 732 mmHg 97%

    Poimâine, 26 Mai, Duminică

    Timp Temperatura Precipitaţii Vânt Presiune Umiditate
    00:00 +13°C° 0.1 mm 3 m/s 733 mmHg 97%
    01:00 +12°C° 0.1 mm 3 m/s 733 mmHg 97%
    02:00 +12°C° 0.1 mm 3 m/s 733 mmHg 97%
    03:00 +11°C° 0 mm 3 m/s 733 mmHg 96%
    04:00 +11°C° 0 mm 3 m/s 733 mmHg 95%
    05:00 +10°C° 0 mm 3 m/s 734 mmHg 94%
    06:00 +11°C° 0 mm 3 m/s 734 mmHg 87%
    07:00 +12°C° 0 mm 4 m/s 734 mmHg 80%
    08:00 +13°C° 0 mm 4 m/s 735 mmHg 73%
    09:00 +12°C° 0 mm 4 m/s 735 mmHg 72%
    10:00 +12°C° 0 mm 4 m/s 735 mmHg 71%
    11:00 +12°C° 0 mm 4 m/s 735 mmHg 70%
    12:00 +12°C° 0 mm 4 m/s 735 mmHg 67%
    13:00 +13°C° 0 mm 4 m/s 735 mmHg 65%
    14:00 +13°C° 0 mm 4 m/s 735 mmHg 62%
    15:00 +13°C° 0 mm 3 m/s 735 mmHg 63%
    16:00 +13°C° 0 mm 3 m/s 735 mmHg 64%
    17:00 +13°C° 0 mm 3 m/s 735 mmHg 64%
    18:00 +13°C° 0 mm 2 m/s 735 mmHg 71%
    19:00 +11°C° 0 mm 1 m/s 735 mmHg 77%
    20:00 +10°C° 0 mm 1 m/s 735 mmHg 84%
    21:00 +9°C° 0 mm 1 m/s 735 mmHg 86%
    22:00 +8°C° 0 mm 2 m/s 734 mmHg 89%
    23:00 +8°C° 0 mm 2 m/s 734 mmHg 91%

    27 Mai, Luni

    Timp Temperatura Precipitaţii Vânt Presiune Umiditate
    00:00 +8°C° 0 mm 2 m/s 734 mmHg 90%
    01:00 +8°C° 0 mm 3 m/s 733 mmHg 88%
    02:00 +8°C° 0 mm 3 m/s 733 mmHg 86%
    03:00 +8°C° 0.7 mm 4 m/s 733 mmHg 89%
    04:00 +8°C° 0.7 mm 4 m/s 733 mmHg 91%
    05:00 +8°C° 0.7 mm 5 m/s 733 mmHg 93%
    06:00 +8°C° 0.1 mm 5 m/s 733 mmHg 88%
    07:00 +9°C° 0.1 mm 5 m/s 733 mmHg 84%
    08:00 +9°C° 0.1 mm 5 m/s 734 mmHg 79%
    09:00 +10°C° 0.1 mm 6 m/s 734 mmHg 71%
    10:00 +11°C° 0.1 mm 6 m/s 735 mmHg 63%
    11:00 +12°C° 0.1 mm 7 m/s 736 mmHg 54%
    12:00 +11°C° 0 mm 6 m/s 736 mmHg 57%
    13:00 +11°C° 0 mm 6 m/s 737 mmHg 61%
    14:00 +10°C° 0 mm 6 m/s 737 mmHg 64%
    15:00 +10°C° 0 mm 5 m/s 738 mmHg 63%
    16:00 +12°C° 0 mm 5 m/s 738 mmHg 62%
    17:00 +12°C° 0 mm 5 m/s 738 mmHg 61%
    18:00 +11°C° 0 mm 4 m/s 738 mmHg 66%
    19:00 +10°C° 0 mm 3 m/s 739 mmHg 72%
    20:00 +9°C° 0 mm 3 m/s 739 mmHg 78%
    21:00 +8°C° 0 mm 2 m/s 739 mmHg 81%
    22:00 +8°C° 0 mm 2 m/s 739 mmHg 84%
    23:00 +7°C° 0 mm 2 m/s 739 mmHg 87%

    28 Mai, Marţi

    Timp Temperatura Precipitaţii Vânt Presiune Umiditate
    00:00 +8°C° 0 mm 2 m/s 739 mmHg 87%
    01:00 +8°C° 0 mm 2 m/s 739 mmHg 86%
    02:00 +9°C° 0 mm 2 m/s 739 mmHg 86%
    03:00 +9°C° 2 mm 2 m/s 739 mmHg 90%
    04:00 +9°C° 2 mm 2 m/s 739 mmHg 94%
    05:00 +10°C° 2 mm 2 m/s 739 mmHg 98%
    06:00 +12°C° 0.4 mm 2 m/s 739 mmHg 97%
    07:00 +12°C° 0.4 mm 3 m/s 739 mmHg 96%
    08:00 +13°C° 0.4 mm 3 m/s 739 mmHg 95%
    09:00 +14°C° 0.1 mm 3 m/s 740 mmHg 90%
    10:00 +17°C° 0.1 mm 3 m/s 740 mmHg 86%
    11:00 +18°C° 0.1 mm 3 m/s 740 mmHg 81%
    12:00 +19°C° 0.2 mm 3 m/s 740 mmHg 74%
    13:00 +20°C° 0.2 mm 2 m/s 741 mmHg 68%
    14:00 +21°C° 0.2 mm 2 m/s 741 mmHg 61%
    15:00 +21°C° 0.1 mm 2 m/s 741 mmHg 63%
    16:00 +21°C° 0.1 mm 2 m/s 741 mmHg 64%
    17:00 +22°C° 0.1 mm 1 m/s 741 mmHg 66%
    18:00 +20°C° 0.1 mm 1 m/s 741 mmHg 74%
    19:00 +19°C° 0.1 mm 1 m/s 741 mmHg 82%
    20:00 +16°C° 0.1 mm 1 m/s 741 mmHg 91%
    21:00 +16°C° 0.2 mm 1 m/s 741 mmHg 93%
    22:00 +16°C° 0.2 mm 1 m/s 741 mmHg 95%
    23:00 +15°C° 0.2 mm 1 m/s 741 mmHg 96%

    29 Mai, Miercuri

    Timp Temperatura Precipitaţii Vânt Presiune Umiditate
    00:00 +15°C° 1.1 mm 1 m/s 741 mmHg 97%
    01:00 +15°C° 1.1 mm 1 m/s 741 mmHg 97%
    02:00 +15°C° 1.1 mm 1 m/s 741 mmHg 97%
    03:00 +16°C° 0 mm 1 m/s 741 mmHg 97%
    04:00 +16°C° 0 mm 1 m/s 741 mmHg 96%
    05:00 +16°C° 0 mm 1 m/s 741 mmHg 96%
    06:00 +18°C° 0 mm 1 m/s 741 mmHg 94%
    07:00 +19°C° 0 mm 1 m/s 741 mmHg 93%
    08:00 +19°C° 0 mm 1 m/s 742 mmHg 91%
    09:00 +21°C° 0 mm 1 m/s 741 mmHg 86%
    10:00 +21°C° 0 mm 2 m/s 741 mmHg 81%
    11:00 +23°C° 0 mm 2 m/s 741 mmHg 76%
    12:00 +24°C° 0 mm 3 m/s 741 mmHg 73%
    13:00 +25°C° 0 mm 3 m/s 741 mmHg 69%
    14:00 +26°C° 0 mm 3 m/s 741 mmHg 65%
    15:00 +26°C° 0 mm 3 m/s 740 mmHg 63%
    16:00 +27°C° 0 mm 4 m/s 740 mmHg 60%
    17:00 +27°C° 0 mm 4 m/s 739 mmHg 58%
    18:00 +26°C° 0.5 mm 4 m/s 739 mmHg 66%
    19:00 +23°C° 0.5 mm 4 m/s 739 mmHg 74%
    20:00 +21°C° 0.5 mm 3 m/s 739 mmHg 82%
    21:00 +21°C° 0.3 mm 3 m/s 739 mmHg 84%
    22:00 +20°C° 0.3 mm 4 m/s 739 mmHg 86%
    23:00 +19°C° 0.3 mm 4 m/s 739 mmHg 88%
    Arată mai mult